Weather History for Sisseton, SD

Change the Weather History Date:

Wednesday, November 21, 2012

  Actual Average Record
Temperature  
Mean Temperature 46 °F 28 °F  
Max Temperature 62 °F 37 °F 67 °F (2001)
Min Temperature 29 °F 18 °F -12 °F (1937)
Degree Days  
Heating Degree Days 19 37  
Month to date heating degree days 613 664  
Since 1 July heating degree days 1486 1491  
Cooling Degree Days 0 0  
Month to date cooling degree days 0 0  
Year to date cooling degree days 712 527  
Moisture  
Dew Point 32 °F    
Average Humidity 61    
Maximum Humidity 85    
Minimum Humidity 36    
Precipitation  
Precipitation 0.00 in 0.02 in 0.72 in (1953)
Month to date precipitation 0.27 0.50  
Year to date precipitation 16.77 21.86  
Snow  
Snow 0.00 in - - ()
Month to date snowfall T  
Since 1 July snowfall T  
Snow Depth 0.00 in    
Sea Level Pressure  
Sea Level Pressure 29.75 in    
Wind  
Wind Speed 9 mph (South)    
Max Wind Speed 26 mph    
Max Gust Speed 35 mph    
T = Trace of Precipitation, MM = Missing Value Source: NWS Daily Summary

Daily Weather History Graph

Daily Weather History Graph

Search for Another Location

Airport:

Trip Planner

Search our weather history database for the weather conditions in past years. The results will help you decide how hot, cold, wet, or windy it might be!

Date:

Astronomy

Nov. 21, 2012 Rise Set
Actual Time 7:36 AM CST 4:51 PM CST
Civil Twilight 7:03 AM CST 5:24 PM CST
Nautical Twilight 6:27 AM CST 6:00 PM CST
Astronomical Twilight 5:51 AM CST 6:35 PM CST
Moon 1:25 PM CST (11/21) 12:37 AM CST (11/21)
Length of Visible Light 10h 20m
Length of Day
9h 14m
First Quarter, 62% of the Moon is Illuminated
Nov 21
First Quarter
Nov 28
Full
Dec 6
Last Quarter
Dec 13
New
Dec 19
First Quarter

Hourly Weather History & Observations

Time (CST) Temp. Windchill Dew Point Humidity Pressure Visibility Wind Dir Wind Speed Gust Speed Precip Events Conditions
12:56 AM 43.0 °F 38.8 °F 32.0 °F 65% 29.89 in - NW 6.9 mph - N/A   Unknown
1:56 AM 42.1 °F - 30.9 °F 65% 29.89 in - Calm Calm - N/A   Unknown
2:56 AM 34.0 °F 29.8 °F 28.9 °F 82% 29.90 in - SSE 4.6 mph - N/A   Unknown
3:56 AM 30.9 °F - 26.1 °F 82% 29.91 in - Calm Calm - N/A   Unknown
4:56 AM 30.9 °F - 27.0 °F 85% 29.91 in - Calm Calm - N/A   Unknown
5:56 AM 33.1 °F 27.7 °F 28.0 °F 82% 29.91 in - SSW 5.8 mph - N/A   Unknown
6:56 AM 36.0 °F 31.1 °F 30.0 °F 79% 29.91 in - SSW 5.8 mph - N/A   Unknown
7:56 AM 34.0 °F 31.0 °F 28.9 °F 82% 29.90 in - SSE 3.5 mph - N/A   Unknown
8:56 AM 39.9 °F 37.8 °F 33.1 °F 77% 29.89 in - South 3.5 mph - N/A   Unknown
9:56 AM 48.9 °F - 35.1 °F 59% 29.87 in - South 4.6 mph - N/A   Unknown
10:56 AM 55.0 °F - 35.1 °F 47% 29.85 in - SSE 10.4 mph - N/A   Unknown
11:56 AM 57.0 °F - 35.1 °F 44% 29.80 in - SE 8.1 mph - N/A   Unknown
12:56 PM 60.1 °F - 35.1 °F 39% 29.76 in - South 12.7 mph - N/A   Unknown
1:56 PM 61.0 °F - 35.1 °F 38% 29.71 in - SSE 13.8 mph - N/A   Unknown
2:56 PM 60.1 °F - 36.0 °F 41% 29.69 in - South 9.2 mph - N/A   Unknown
3:56 PM 59.0 °F - 37.0 °F 44% 29.67 in - SSE 10.4 mph - N/A   Unknown
4:56 PM 55.0 °F - 34.0 °F 45% 29.66 in - South 9.2 mph - N/A   Unknown
5:56 PM 48.9 °F - 34.0 °F 56% 29.66 in - South 5.8 mph - N/A   Unknown
6:56 PM 45.0 °F 41.8 °F 33.1 °F 63% 29.63 in - SE 5.8 mph - N/A   Unknown
7:56 PM 54.0 °F - 33.1 °F 45% 29.59 in - SW 15.0 mph 18.4 mph N/A   Unknown
8:09 PM 55.4 °F - 33.8 °F 44% 29.56 in - SW 17.3 mph - N/A   Unknown
8:56 PM 55.0 °F - 30.9 °F 40% 29.57 in - SSW 10.4 mph - N/A   Unknown
9:56 PM 57.0 °F - 30.9 °F 37% 29.53 in - WSW 25.3 mph 32.2 mph N/A   Unknown
10:56 PM 55.9 °F - 30.0 °F 37% 29.52 in - WSW 21.9 mph - N/A   Unknown
11:56 PM 54.0 °F - 30.9 °F 41% 29.52 in - West 16.1 mph - N/A   Unknown